PAS646 WALL-WAHI

Flight info

Callsign PAS646
Flight time 1h 42m
Altitude 34000
Route AJAMA T14 LAVOV T26 ANY W17N SO
Aircraft A320/M-SDE3FGHIRWY/LB1

Departure

Time 2026-04-27 01:49
Airport Sultan Aji Muhammad Sulaiman Sepinggan International Airport (WALL)

Arrival

Time 2026-04-27 03:31
Airport Yogyakarta International Airport (WAHI)
Time Latitude Longitude Altitude Speed Heading
2026-04-27 01:28 -1.26281 116.89924 21 ft 0 kts 336°
2026-04-27 01:30 -1.26295 116.89930 21 ft 4 kts 336°
2026-04-27 01:30 -1.26319 116.89941 21 ft 4 kts 330°
2026-04-27 01:31 -1.26338 116.89957 21 ft 4 kts 291°
2026-04-27 01:31 -1.26340 116.89979 21 ft 2 kts 248°
2026-04-27 01:31 -1.26338 116.89984 21 ft 0 kts 247°
2026-04-27 01:43 -1.26343 116.89971 21 ft 6 kts 247°
2026-04-27 01:43 -1.26360 116.89931 23 ft 8 kts 247°
2026-04-27 01:43 -1.26384 116.89873 21 ft 8 kts 248°
2026-04-27 01:43 -1.26405 116.89821 23 ft 8 kts 248°
2026-04-27 01:44 -1.26429 116.89776 21 ft 7 kts 225°
2026-04-27 01:44 -1.26488 116.89773 21 ft 10 kts 178°
2026-04-27 01:44 -1.26538 116.89721 21 ft 14 kts 246°
2026-04-27 01:44 -1.26585 116.89611 21 ft 18 kts 247°
2026-04-27 01:45 -1.26633 116.89493 23 ft 19 kts 248°
2026-04-27 01:45 -1.26684 116.89372 23 ft 19 kts 247°
2026-04-27 01:45 -1.26736 116.89248 21 ft 20 kts 247°
2026-04-27 01:45 -1.26792 116.89118 21 ft 21 kts 246°
2026-04-27 01:46 -1.26850 116.88982 21 ft 22 kts 247°
2026-04-27 01:46 -1.26911 116.88837 21 ft 23 kts 247°
2026-04-27 01:46 -1.26973 116.88686 21 ft 24 kts 248°
2026-04-27 01:46 -1.27037 116.88535 21 ft 23 kts 247°
2026-04-27 01:47 -1.27080 116.88436 23 ft 15 kts 245°
2026-04-27 01:47 -1.27145 116.88366 21 ft 13 kts 197°
2026-04-27 01:47 -1.27220 116.88390 21 ft 11 kts 131°
2026-04-27 01:47 -1.27259 116.88443 22 ft 7 kts 99°
2026-04-27 01:48 -1.27241 116.88494 21 ft 16 kts 67°
2026-04-27 01:48 -1.27093 116.88842 21 ft 90 kts 67°
2026-04-27 01:48 -1.26770 116.89609 24 ft 146 kts 67°
2026-04-27 01:48 -1.26320 116.90631 385 ft 164 kts 64°
2026-04-27 01:49 -1.25869 116.91691 1079 ft 168 kts 66°
2026-04-27 01:49 -1.25429 116.92765 1827 ft 168 kts 66°
2026-04-27 01:49 -1.24958 116.93876 2218 ft 184 kts 65°
2026-04-27 01:49 -1.24423 116.95122 2449 ft 206 kts 66°
2026-04-27 01:50 -1.23853 116.96497 2870 ft 219 kts 72°
2026-04-27 01:50 -1.23858 116.98002 3541 ft 224 kts 111°
2026-04-27 01:50 -1.24869 116.99258 3960 ft 246 kts 144°
2026-04-27 01:50 -1.26413 117.00060 4583 ft 255 kts 156°
2026-04-27 01:51 -1.28100 117.00686 4941 ft 260 kts 160°
2026-04-27 01:51 -1.29807 117.01269 5011 ft 260 kts 160°
2026-04-27 01:51 -1.31509 117.01867 5012 ft 259 kts 159°
2026-04-27 01:51 -1.33205 117.02498 5200 ft 262 kts 158°
2026-04-27 01:52 -1.34898 117.03160 5994 ft 261 kts 157°
2026-04-27 01:52 -1.36594 117.03851 6740 ft 265 kts 156°
2026-04-27 01:52 -1.38308 117.04563 7463 ft 268 kts 156°
2026-04-27 01:52 -1.40039 117.05292 8179 ft 271 kts 156°
2026-04-27 01:53 -1.41784 117.06031 8900 ft 274 kts 156°
2026-04-27 01:53 -1.43574 117.06712 9580 ft 278 kts 168°
2026-04-27 01:53 -1.45489 117.06592 10219 ft 281 kts 202°
2026-04-27 01:53 -1.47116 117.05451 10515 ft 299 kts 231°
2026-04-27 01:54 -1.48260 117.03631 10657 ft 321 kts 244°
2026-04-27 01:54 -1.49145 117.01497 10812 ft 342 kts 250°
2026-04-27 01:54 -1.49930 116.99216 11238 ft 352 kts 252°
2026-04-27 01:54 -1.50722 116.96878 11822 ft 357 kts 251°
2026-04-27 01:55 -1.51569 116.94540 12434 ft 360 kts 249°
2026-04-27 01:55 -1.52485 116.92191 13011 ft 364 kts 248°
2026-04-27 01:55 -1.53307 116.89791 13590 ft 368 kts 257°
2026-04-27 01:55 -1.53638 116.87240 14124 ft 372 kts 270°
2026-04-27 01:56 -1.52727 116.82120 15201 ft 379 kts 285°
2026-04-27 01:56 -1.52059 116.79554 15728 ft 383 kts 285°
2026-04-27 01:56 -1.51387 116.76968 16233 ft 386 kts 285°
2026-04-27 01:57 -1.50713 116.74360 16723 ft 390 kts 285°
2026-04-27 01:57 -1.50036 116.71732 17198 ft 393 kts 285°
2026-04-27 01:57 -1.49354 116.69073 17669 ft 396 kts 285°
2026-04-27 01:57 -1.48659 116.66398 18132 ft 400 kts 285°
2026-04-27 01:58 -1.47953 116.63733 18588 ft 403 kts 285°
2026-04-27 01:58 -1.47229 116.61020 19042 ft 406 kts 285°
2026-04-27 01:58 -1.46497 116.58285 19493 ft 408 kts 285°
2026-04-27 01:58 -1.45784 116.55537 19929 ft 411 kts 282°
2026-04-27 01:59 -1.45463 116.52692 20335 ft 414 kts 270°
2026-04-27 01:59 -1.45696 116.49810 20754 ft 416 kts 259°
2026-04-27 01:59 -1.46478 116.47026 21137 ft 418 kts 248°
2026-04-27 01:59 -1.47540 116.44314 21527 ft 420 kts 248°
2026-04-27 02:00 -1.48601 116.41576 21913 ft 423 kts 249°
2026-04-27 02:00 -1.49654 116.38830 22298 ft 425 kts 249°
2026-04-27 02:00 -1.50715 116.36061 22670 ft 427 kts 249°
2026-04-27 02:00 -1.51782 116.33282 23043 ft 429 kts 249°
2026-04-27 02:01 -1.52851 116.30499 23386 ft 431 kts 249°
2026-04-27 02:01 -1.53931 116.27691 23741 ft 433 kts 249°
2026-04-27 02:01 -1.55007 116.24881 24092 ft 435 kts 249°
2026-04-27 02:01 -1.56089 116.22052 24424 ft 437 kts 249°
2026-04-27 02:02 -1.57180 116.19208 24742 ft 439 kts 249°
2026-04-27 02:02 -1.58284 116.16351 25054 ft 441 kts 249°
2026-04-27 02:02 -1.59394 116.13491 25352 ft 443 kts 248°
2026-04-27 02:02 -1.60135 116.11583 25570 ft 444 kts 248°
2026-04-27 02:03 -1.61253 116.08702 25878 ft 446 kts 248°
2026-04-27 02:03 -1.62378 116.05800 26184 ft 448 kts 248°
2026-04-27 02:03 -1.63504 116.02886 26437 ft 450 kts 248°
2026-04-27 02:03 -1.64632 115.99962 26706 ft 452 kts 248°
2026-04-27 02:04 -1.65760 115.97030 26973 ft 454 kts 248°
2026-04-27 02:04 -1.66896 115.94078 27211 ft 456 kts 248°
2026-04-27 02:04 -1.68037 115.91114 27447 ft 458 kts 248°
2026-04-27 02:04 -1.69183 115.88134 27712 ft 460 kts 248°
2026-04-27 02:05 -1.70333 115.85152 27976 ft 462 kts 248°
2026-04-27 02:05 -1.71491 115.82157 28218 ft 464 kts 248°
2026-04-27 02:05 -1.72658 115.79144 28468 ft 465 kts 248°
2026-04-27 02:05 -1.73843 115.76077 28717 ft 467 kts 248°
2026-04-27 02:06 -1.75013 115.73039 28949 ft 469 kts 248°
2026-04-27 02:06 -1.76171 115.70027 29170 ft 471 kts 248°
2026-04-27 02:06 -1.77358 115.66928 29402 ft 473 kts 248°
2026-04-27 02:06 -1.78539 115.63845 29621 ft 475 kts 248°
2026-04-27 02:07 -1.79723 115.60759 29834 ft 477 kts 248°
2026-04-27 02:07 -1.80916 115.57661 30048 ft 478 kts 248°
2026-04-27 02:07 -1.82099 115.54594 30247 ft 480 kts 248°
2026-04-27 02:07 -1.83303 115.51481 30461 ft 481 kts 248°
2026-04-27 02:08 -1.84512 115.48357 30664 ft 482 kts 248°
2026-04-27 02:08 -1.85738 115.45181 30851 ft 484 kts 248°
2026-04-27 02:08 -1.87095 115.42113 31127 ft 482 kts 240°
2026-04-27 02:08 -1.88854 115.39326 31416 ft 480 kts 231°
2026-04-27 02:09 -1.90929 115.36722 31704 ft 479 kts 230°
2026-04-27 02:09 -1.93013 115.34134 31986 ft 478 kts 230°
2026-04-27 02:09 -1.95093 115.31542 32271 ft 477 kts 230°
2026-04-27 02:09 -1.97164 115.28950 32538 ft 477 kts 230°
2026-04-27 02:10 -1.99257 115.26324 32819 ft 477 kts 230°
2026-04-27 02:10 -2.01290 115.23769 33094 ft 476 kts 230°
2026-04-27 02:10 -2.03354 115.21186 33365 ft 475 kts 230°
2026-04-27 02:10 -2.05418 115.18604 33644 ft 475 kts 230°
2026-04-27 02:11 -2.07482 115.16022 33856 ft 475 kts 230°
2026-04-27 02:11 -2.09530 115.13458 33906 ft 469 kts 230°
2026-04-27 02:11 -2.13572 115.08394 33911 ft 464 kts 230°
2026-04-27 02:12 -2.17594 115.03355 33915 ft 463 kts 230°
2026-04-27 02:12 -2.21614 114.98326 33915 ft 463 kts 230°
2026-04-27 02:13 -2.25644 114.93300 33915 ft 463 kts 230°
2026-04-27 02:13 -2.29664 114.88269 33914 ft 463 kts 230°
2026-04-27 02:14 -2.33677 114.83242 33911 ft 463 kts 230°
2026-04-27 02:14 -2.37696 114.78207 33909 ft 463 kts 230°
2026-04-27 02:15 -2.41713 114.73178 33908 ft 463 kts 230°
2026-04-27 02:15 -2.45733 114.68156 33906 ft 463 kts 230°
2026-04-27 02:16 -2.49745 114.63132 33909 ft 462 kts 230°
2026-04-27 02:16 -2.53759 114.58097 33900 ft 462 kts 230°
2026-04-27 02:17 -2.57771 114.53072 33905 ft 463 kts 230°
2026-04-27 02:17 -2.61786 114.48038 33907 ft 463 kts 230°
2026-04-27 02:18 -2.65798 114.43005 33907 ft 463 kts 230°
2026-04-27 02:18 -2.69816 114.37976 33904 ft 463 kts 230°
2026-04-27 02:19 -2.73836 114.32958 33908 ft 463 kts 230°
2026-04-27 02:19 -2.77850 114.27931 33910 ft 463 kts 230°
2026-04-27 02:20 -2.81863 114.22888 33907 ft 462 kts 230°
2026-04-27 02:20 -2.85863 114.17864 33906 ft 462 kts 230°
2026-04-27 02:21 -2.89880 114.12833 33907 ft 462 kts 230°
2026-04-27 02:21 -2.93889 114.07804 33901 ft 463 kts 230°
2026-04-27 02:22 -2.97901 114.02770 33904 ft 462 kts 230°
2026-04-27 02:22 -3.01911 113.97751 33903 ft 462 kts 230°
2026-04-27 02:23 -3.05915 113.92732 33905 ft 461 kts 230°
2026-04-27 02:23 -3.09918 113.87702 33909 ft 461 kts 230°
2026-04-27 02:24 -3.13895 113.82719 33905 ft 461 kts 230°
2026-04-27 02:24 -3.17898 113.77696 33905 ft 462 kts 230°
2026-04-27 02:25 -3.21904 113.72676 33910 ft 462 kts 230°
2026-04-27 02:25 -3.25898 113.67647 33912 ft 462 kts 230°
2026-04-27 02:26 -3.29894 113.62622 33913 ft 462 kts 230°
2026-04-27 02:26 -3.33898 113.57597 33914 ft 461 kts 230°
2026-04-27 02:27 -3.37906 113.52573 33916 ft 462 kts 230°
2026-04-27 02:27 -3.41914 113.47546 33917 ft 462 kts 230°
2026-04-27 02:28 -3.45913 113.42526 33915 ft 462 kts 230°
2026-04-27 02:28 -3.49914 113.37502 33916 ft 462 kts 230°
2026-04-27 02:29 -3.53917 113.32475 33918 ft 462 kts 231°
2026-04-27 02:29 -3.57920 113.27436 33921 ft 462 kts 231°
2026-04-27 02:30 -3.61912 113.22402 33923 ft 462 kts 231°
2026-04-27 02:30 -3.65916 113.17370 33920 ft 462 kts 230°
2026-04-27 02:31 -3.69921 113.12347 33916 ft 462 kts 230°
2026-04-27 02:31 -3.73926 113.07320 33913 ft 462 kts 230°
2026-04-27 02:32 -3.77922 113.02286 33915 ft 462 kts 230°
2026-04-27 02:32 -3.81922 112.97247 33916 ft 462 kts 230°
2026-04-27 02:33 -3.85932 112.92201 33918 ft 463 kts 230°
2026-04-27 02:33 -3.89948 112.87148 33926 ft 464 kts 230°
2026-04-27 02:34 -3.93962 112.82099 33925 ft 463 kts 230°
2026-04-27 02:34 -3.97977 112.77048 33924 ft 464 kts 230°
2026-04-27 02:35 -4.01994 112.71986 33920 ft 464 kts 230°
2026-04-27 02:35 -4.06019 112.66929 33915 ft 465 kts 230°
2026-04-27 02:36 -4.10048 112.61863 33913 ft 465 kts 230°
2026-04-27 02:36 -4.14076 112.56789 33912 ft 465 kts 230°
2026-04-27 02:37 -4.18259 112.51865 33908 ft 463 kts 221°
2026-04-27 02:37 -4.23308 112.47871 33906 ft 462 kts 216°
2026-04-27 02:38 -4.28419 112.43973 33908 ft 462 kts 216°
2026-04-27 02:38 -4.33535 112.40060 33907 ft 463 kts 216°
2026-04-27 02:39 -4.38653 112.36133 33909 ft 463 kts 216°
2026-04-27 02:39 -4.43767 112.32210 33913 ft 463 kts 216°
2026-04-27 02:40 -4.48850 112.28312 33916 ft 463 kts 216°
2026-04-27 02:40 -4.53964 112.24394 33916 ft 463 kts 216°
2026-04-27 02:41 -4.59071 112.20477 33913 ft 462 kts 216°
2026-04-27 02:41 -4.64180 112.16553 33918 ft 462 kts 216°
2026-04-27 02:42 -4.69292 112.12634 33917 ft 463 kts 216°
2026-04-27 02:42 -4.74404 112.08720 33919 ft 463 kts 216°
2026-04-27 02:43 -4.79514 112.04793 33922 ft 463 kts 216°
2026-04-27 02:43 -4.84624 112.00870 33921 ft 462 kts 216°
2026-04-27 02:44 -4.89727 111.96950 33912 ft 462 kts 216°
2026-04-27 02:44 -4.94836 111.93033 33909 ft 463 kts 216°
2026-04-27 02:45 -4.99952 111.89105 33909 ft 463 kts 216°
2026-04-27 02:45 -5.04206 111.85835 33902 ft 463 kts 216°
2026-04-27 02:46 -5.09324 111.81907 33903 ft 464 kts 216°
2026-04-27 02:46 -5.14444 111.77969 33905 ft 464 kts 216°
2026-04-27 02:47 -5.19565 111.74040 33899 ft 464 kts 216°
2026-04-27 02:47 -5.24686 111.70094 33905 ft 464 kts 216°
2026-04-27 02:48 -5.29800 111.66150 33902 ft 464 kts 216°
2026-04-27 02:48 -5.34926 111.62211 33903 ft 464 kts 216°
2026-04-27 02:49 -5.40049 111.58269 33902 ft 464 kts 216°
2026-04-27 02:49 -5.45175 111.54334 33907 ft 464 kts 216°
2026-04-27 02:50 -5.50291 111.50396 33906 ft 463 kts 216°
2026-04-27 02:50 -5.55411 111.46457 33904 ft 463 kts 216°
2026-04-27 02:51 -5.60524 111.42525 33911 ft 464 kts 216°
2026-04-27 02:51 -5.65642 111.38577 33906 ft 463 kts 216°
2026-04-27 02:52 -5.70754 111.34638 33905 ft 463 kts 216°
2026-04-27 02:52 -5.75878 111.30695 33908 ft 463 kts 216°
2026-04-27 02:53 -5.80997 111.26755 33910 ft 463 kts 216°
2026-04-27 02:53 -5.86104 111.22813 33909 ft 463 kts 216°
2026-04-27 02:54 -5.91225 111.18881 33910 ft 464 kts 216°
2026-04-27 02:54 -5.96344 111.15009 33909 ft 464 kts 216°
2026-04-27 02:55 -6.01533 111.11090 33912 ft 464 kts 216°
2026-04-27 02:55 -6.06688 111.07181 33911 ft 464 kts 216°
2026-04-27 02:56 -6.11836 111.03263 33912 ft 464 kts 216°
2026-04-27 02:56 -6.16950 110.99367 33914 ft 464 kts 216°
2026-04-27 02:57 -6.22129 110.95426 33915 ft 464 kts 216°
2026-04-27 02:57 -6.27276 110.91510 33913 ft 464 kts 216°
2026-04-27 02:58 -6.32393 110.87621 33916 ft 465 kts 216°
2026-04-27 02:58 -6.37585 110.83669 33918 ft 465 kts 216°
2026-04-27 02:59 -6.42702 110.79770 33917 ft 465 kts 216°
2026-04-27 02:59 -6.47858 110.75848 33918 ft 465 kts 216°
2026-04-27 03:00 -6.53014 110.71918 33919 ft 465 kts 216°
2026-04-27 03:00 -6.58170 110.67993 33918 ft 465 kts 216°
2026-04-27 03:01 -6.63331 110.64063 33916 ft 465 kts 216°
2026-04-27 03:01 -6.68483 110.60141 33915 ft 465 kts 216°
2026-04-27 03:02 -6.73635 110.56212 33909 ft 464 kts 216°
2026-04-27 03:02 -6.78772 110.52290 33907 ft 464 kts 216°
2026-04-27 03:03 -6.86485 110.46403 33907 ft 464 kts 216°
2026-04-27 03:03 -6.89172 110.44636 33910 ft 461 kts 204°
2026-04-27 03:04 -6.92197 110.43630 33913 ft 457 kts 187°
2026-04-27 03:04 -6.95345 110.43505 33910 ft 452 kts 171°
2026-04-27 03:04 -6.98375 110.44242 33907 ft 447 kts 155°
2026-04-27 03:04 -7.01076 110.45749 33899 ft 442 kts 140°
2026-04-27 03:05 -7.03263 110.47888 33896 ft 438 kts 125°
2026-04-27 03:05 -7.06479 110.53065 33899 ft 436 kts 119°
2026-04-27 03:06 -7.09599 110.58319 33897 ft 438 kts 119°
2026-04-27 03:06 -7.12722 110.63579 33897 ft 438 kts 119°
2026-04-27 03:07 -7.15891 110.68836 33895 ft 440 kts 123°
2026-04-27 03:07 -7.17879 110.71183 33896 ft 443 kts 135°
2026-04-27 03:07 -7.20340 110.73055 33896 ft 446 kts 148°
2026-04-27 03:07 -7.23169 110.74353 33896 ft 449 kts 160°
2026-04-27 03:08 -7.26239 110.75011 33894 ft 453 kts 173°
2026-04-27 03:08 -7.29400 110.75075 33730 ft 455 kts 179°
2026-04-27 03:08 -7.32544 110.75024 33285 ft 451 kts 179°
2026-04-27 03:08 -7.35678 110.74961 32688 ft 449 kts 179°
2026-04-27 03:09 -7.38792 110.74891 32123 ft 447 kts 179°
2026-04-27 03:09 -7.41901 110.74822 31546 ft 445 kts 179°
2026-04-27 03:09 -7.44983 110.74758 30987 ft 442 kts 180°
2026-04-27 03:09 -7.48029 110.74359 30424 ft 442 kts 193°
2026-04-27 03:10 -7.50930 110.73339 29863 ft 440 kts 204°
2026-04-27 03:10 -7.53541 110.71756 29348 ft 438 kts 216°
2026-04-27 03:10 -7.55771 110.69681 28830 ft 435 kts 227°
2026-04-27 03:10 -7.57745 110.67396 28340 ft 431 kts 228°
2026-04-27 03:11 -7.59703 110.65125 27849 ft 427 kts 228°
2026-04-27 03:11 -7.61640 110.62879 27369 ft 423 kts 228°
2026-04-27 03:11 -7.63560 110.60659 26908 ft 418 kts 228°
2026-04-27 03:11 -7.65463 110.58457 26444 ft 414 kts 228°
2026-04-27 03:12 -7.67318 110.56307 25998 ft 410 kts 228°
2026-04-27 03:12 -7.69181 110.54150 25530 ft 406 kts 228°
2026-04-27 03:12 -7.71026 110.52014 25069 ft 402 kts 228°
2026-04-27 03:12 -7.72857 110.49895 24576 ft 399 kts 228°
2026-04-27 03:13 -7.74669 110.47796 24101 ft 396 kts 228°
2026-04-27 03:13 -7.76443 110.45681 23615 ft 393 kts 233°
2026-04-27 03:13 -7.77836 110.43323 23130 ft 392 kts 245°
2026-04-27 03:13 -7.78714 110.40733 22645 ft 390 kts 257°
2026-04-27 03:14 -7.79126 110.38035 22160 ft 388 kts 262°
2026-04-27 03:14 -7.79467 110.35341 21682 ft 387 kts 262°
2026-04-27 03:14 -7.79811 110.32656 21219 ft 385 kts 263°
2026-04-27 03:14 -7.79907 110.29974 20739 ft 384 kts 274°
2026-04-27 03:15 -7.79606 110.27305 20239 ft 383 kts 277°
2026-04-27 03:15 -7.79290 110.24647 19745 ft 381 kts 276°
2026-04-27 03:15 -7.78981 110.21994 19251 ft 381 kts 276°
2026-04-27 03:15 -7.78677 110.19345 18758 ft 380 kts 276°
2026-04-27 03:16 -7.78375 110.16700 18260 ft 379 kts 276°
2026-04-27 03:16 -7.78070 110.14059 17782 ft 378 kts 276°
2026-04-27 03:16 -7.77760 110.11428 17283 ft 378 kts 276°
2026-04-27 03:16 -7.77447 110.08798 16794 ft 377 kts 276°
2026-04-27 03:17 -7.77136 110.06179 16385 ft 374 kts 276°
2026-04-27 03:17 -7.76830 110.03583 15902 ft 372 kts 275°
2026-04-27 03:17 -7.76923 110.01008 15399 ft 369 kts 254°
2026-04-27 03:17 -7.77976 109.98703 14957 ft 363 kts 231°
2026-04-27 03:18 -7.79819 109.97017 14599 ft 353 kts 208°
2026-04-27 03:18 -7.82050 109.96151 14505 ft 337 kts 193°
2026-04-27 03:18 -7.84284 109.95550 14349 ft 329 kts 193°
2026-04-27 03:18 -7.86484 109.94959 14180 ft 326 kts 193°
2026-04-27 03:19 -7.88672 109.94376 14012 ft 325 kts 193°
2026-04-27 03:19 -7.90852 109.93796 13840 ft 324 kts 193°
2026-04-27 03:19 -7.93035 109.93213 13672 ft 323 kts 193°
2026-04-27 03:19 -7.95198 109.92633 13497 ft 322 kts 193°
2026-04-27 03:20 -7.97362 109.92053 13332 ft 321 kts 193°
2026-04-27 03:20 -7.99494 109.91481 13159 ft 320 kts 193°
2026-04-27 03:20 -8.01644 109.90906 12993 ft 319 kts 193°
2026-04-27 03:20 -8.03790 109.90333 12706 ft 320 kts 193°
2026-04-27 03:21 -8.05959 109.89760 12239 ft 321 kts 193°
2026-04-27 03:21 -8.08119 109.89191 11823 ft 321 kts 193°
2026-04-27 03:21 -8.10308 109.88616 11382 ft 320 kts 193°
2026-04-27 03:21 -8.12421 109.88057 11126 ft 314 kts 193°
2026-04-27 03:22 -8.14523 109.87747 10810 ft 301 kts 174°
2026-04-27 03:22 -8.16484 109.88324 10281 ft 293 kts 148°
2026-04-27 03:22 -8.17988 109.89696 9835 ft 294 kts 124°
2026-04-27 03:22 -8.18779 109.91584 9403 ft 295 kts 103°
2026-04-27 03:23 -8.19221 109.93608 8970 ft 295 kts 103°
2026-04-27 03:23 -8.19610 109.95642 8533 ft 296 kts 95°
2026-04-27 03:23 -8.19256 109.97664 8104 ft 298 kts 64°
2026-04-27 03:23 -8.17913 109.99236 7718 ft 297 kts 33°
2026-04-27 03:24 -8.16024 109.99971 7256 ft 287 kts 12°
2026-04-27 03:24 -8.14123 110.00390 6895 ft 274 kts 14°
2026-04-27 03:24 -8.12388 110.01109 6410 ft 268 kts 34°
2026-04-27 03:24 -8.10979 110.02314 6012 ft 267 kts 51°
2026-04-27 03:25 -8.09822 110.03764 5645 ft 263 kts 52°
2026-04-27 03:25 -8.08670 110.05196 5163 ft 261 kts 52°
2026-04-27 03:25 -8.07527 110.06607 4628 ft 257 kts 51°
2026-04-27 03:25 -8.06395 110.08000 4170 ft 258 kts 51°
2026-04-27 03:26 -8.05268 110.09385 3875 ft 252 kts 51°
2026-04-27 03:26 -8.04183 110.10721 3747 ft 240 kts 52°
2026-04-27 03:26 -8.03148 110.11994 3633 ft 232 kts 52°
2026-04-27 03:26 -8.02117 110.13242 3530 ft 231 kts 47°
2026-04-27 03:27 -8.00860 110.14250 3278 ft 231 kts 37°
2026-04-27 03:27 -7.99545 110.15178 2944 ft 232 kts 36°
2026-04-27 03:27 -7.98243 110.16093 2628 ft 223 kts 36°
2026-04-27 03:27 -7.96876 110.16718 2321 ft 215 kts
2026-04-27 03:28 -7.95498 110.16330 2058 ft 206 kts 320°
2026-04-27 03:28 -7.94685 110.15187 1767 ft 199 kts 295°
2026-04-27 03:28 -7.93983 110.14002 1472 ft 195 kts 304°
2026-04-27 03:28 -7.93290 110.12875 1220 ft 182 kts 292°
2026-04-27 03:29 -7.92821 110.11750 1004 ft 165 kts 290°
2026-04-27 03:29 -7.92413 110.10707 789 ft 155 kts 289°
2026-04-27 03:29 -7.92027 110.09712 636 ft 151 kts 290°
2026-04-27 03:29 -7.91643 110.08723 431 ft 151 kts 289°
2026-04-27 03:30 -7.91398 110.08072 308 ft 150 kts 289°
2026-04-27 03:30 -7.91028 110.07081 112 ft 149 kts 290°
2026-04-27 03:30 -7.90697 110.06171 39 ft 121 kts 290°
2026-04-27 03:30 -7.90469 110.05545 41 ft 70 kts 289°
2026-04-27 03:31 -7.90386 110.05340 38 ft 20 kts 307°
2026-04-27 03:31 -7.90324 110.05269 37 ft 10 kts 313°
2026-04-27 03:31 -7.90277 110.05223 38 ft 9 kts 317°
2026-04-27 03:31 -7.90229 110.05181 36 ft 9 kts 327°
2026-04-27 03:32 -7.90178 110.05198 35 ft 7 kts 52°
2026-04-27 03:32 -7.90176 110.05242 38 ft 7 kts 107°
2026-04-27 03:32 -7.90188 110.05278 37 ft 4 kts 108°
2026-04-27 03:32 -7.90192 110.05292 38 ft 1 kts 108°
2026-04-27 03:33 -7.90193 110.05293 39 ft 2 kts 108°
2026-04-27 03:33 -7.90215 110.05358 39 ft 12 kts 111°
2026-04-27 03:33 -7.90242 110.05429 41 ft 9 kts 110°
2026-04-27 03:33 -7.90262 110.05484 42 ft 8 kts 110°
2026-04-27 03:34 -7.90290 110.05558 43 ft 11 kts 110°
2026-04-27 03:34 -7.90313 110.05622 43 ft 10 kts 110°
2026-04-27 03:34 -7.90344 110.05716 45 ft 16 kts 96°
2026-04-27 03:34 -7.90255 110.05779 39 ft 17 kts 20°
2026-04-27 03:35 -7.90207 110.05817 38 ft 7 kts 73°
2026-04-27 03:35 -7.90176 110.05845 38 ft 6 kts 27°
2026-04-27 03:35 -7.90143 110.05857 37 ft 5 kts 19°
2026-04-27 03:35 -7.90117 110.05867 38 ft 2 kts 20°
2026-04-27 03:36 -7.90111 110.05869 38 ft 0 kts 20°
2026-04-27 03:36 -7.90110 110.05870 38 ft 0 kts 20°